Hauptseite
METAR-TAF:

METAR-TAF

Flughäfen :

Turin, Italien

Bric della Croce

Breite: 45-02N, Länge: 007-44E, Höhe: 709 m

Beobachtung

Neuester Wetterbericht von vor 1 Stunde und 0 Minuten, um 08:55 UTC
Windstille
Temperatur 16°C
Luftfeuchtigkeit 51%
Luftdruck 1029 hPa
Sichtweite 10 km oder mehr
keine Wolken unter 1500 m und keine Kumulonimbus oder Gewitterwolken

METAR: LIMK 190855Z 00000KT CAVOK 16/06 Q1029 RMK SKC VAL NIL VIS MIN 9999

Zeit: 11:55 (09:55 UTC)


TAF: fehlend

Wetterbeobachtungen und Prognosen von mehr als 4000 Flughäfen (METAR und TAF Bericht).

Die verfügbaren Stationen werden durch gelbe und rote Markierungen auf der Karte dargestellt.

Führen Sie die Maus auf sie, um den Namen der Station zu sehen.

Darauf klicken, um die Beobachtung von Wetterbeobachtungen und Prognosen zu sehen.

Um die Karte zu ändern : klicken Sie auf den grünen Tasten mit einem schwarzen Kreuz Zum Vergrößern, auf den grünen Button mit einem Gedankenstrich zu verkleinern, oder auf die grünen Pfeile für benachbarte Karten.


METAR-TAF: